QPF
0.00 0.00 0.00 0.00 0.00 0.00 0.00 0.00 0.00 0.00 0.00 0.00 0.00 0.00 0.00 0.00 0.00 0.00 0.00 0.00 0.00 0.00 0.00 0.00 0.00 0.00 0.00 0.00 0.00 0.00 0.00 0.00 0.00 0.00 0.00 0.00 0.00 0.00 0.00 0.00 0.00 0.00 0.00 0.00
0.00 0.00 0.00 0.00 0.00 0.00 0.00 0.00 0.00 0.00 0.00 0.00 0.00 0.00 0.00 0.00 0.00 0.00 0.00 0.00 0.00 0.00 0.00 0.00 0.00 0.00 0.00 0.00 0.00 0.00 0.00 0.00 0.00 0.00 0.00 0.00 0.00 0.00 0.00 0.00 0.00 0.00 0.00 0.00
0.00 0.00 0.00 0.00 0.00 0.00 0.00 0.00 0.00 0.00 0.00 0.00 0.00 0.00 0.00 0.00 0.00 0.00 0.00 0.00 0.00 0.00 0.00 0.00 0.00 0.00 0.00 0.00 0.00 0.00 0.00 0.00 0.00 0.00 0.00 0.00 0.00 0.00 0.00 0.00 0.00 0.00 0.00 0.00
0.00 0.00 0.00 0.00 0.00 0.00 0.00 0.00 0.00 0.00 0.00 0.00 0.00 0.00 0.00 0.00 0.00 0.00 0.00 0.00 0.00 0.00 0.00 0.00 0.00 0.00 0.00 0.00 0.00 0.00 0.00 0.00 0.00 0.00 0.00 0.00 0.00 0.00 0.00 0.00 0.00 0.00 0.00 0.00
0.00 0.00 0.00 0.00 0.00 0.00 0.00 0.00 0.00 0.00 0.00 0.00 0.00 0.00 0.00 0.00 0.00 0.00 0.00 0.00 0.00 0.00 0.00 0.00 0.00 0.00 0.00 0.00 0.00 0.00 0.00 0.00 0.00 0.00 0.00 0.00 0.00 0.00 0.00 0.00 0.00 0.00 0.00 0.00
0.00 0.00 0.00 0.00 0.00 0.00 0.00 0.00 0.00 0.00 0.00 0.00 0.00 0.00 0.00 0.00 0.00 0.00 0.00 0.00 0.00 0.00 0.00 0.00 0.00 0.00 0.00 0.00 0.00 0.00 0.00 0.00 0.00 0.00 0.00 0.00 0.00 0.00 0.00 0.00 0.00 0.00 0.00 0.00
0.00 0.00 0.00 0.00 0.00 0.00 0.00 0.00 0.00 0.00 0.00 0.00 0.00 0.00 0.00 0.00 0.00 0.00 0.00 0.00 0.00 0.00 0.00 0.00 0.00 0.00 0.00 0.00 0.00 0.00 0.00 0.00 0.00 0.00 0.00 0.00 0.00 0.00 0.00 0.00 0.00 0.00 0.00 0.00
0.00 0.00 0.00 0.00 0.00 0.00 0.00 0.00 0.00 0.00 0.00 0.00 0.00 0.00 0.00 0.00 0.00 0.00 0.00 0.00 0.00 0.00 0.00 0.00 0.00 0.00 0.00 0.00 0.00 0.00 0.00 0.00 0.00 0.00 0.00 0.00 0.00 0.00 0.00 0.00 0.00 0.00 0.00 0.00
0.00 0.00 0.00 0.00 0.00 0.00 0.00 0.00 0.00 0.00 0.00 0.00 0.00 0.00 0.00 0.00 0.00 0.00 0.00 0.00 0.00 0.00 0.00 0.00 0.00 0.00 0.00 0.00 0.00 0.00 0.00 0.00 0.00 0.00 0.00 0.00 0.00 0.00 0.00 0.00 0.00 0.00 0.00 0.00
0.00 0.00 0.00 0.00 0.00 0.00 0.00 0.00 0.00 0.00 0.00 0.00 0.00 0.00 0.00 0.00 0.00 0.00 0.00 0.00 0.00 0.00 0.00 0.00 0.00 0.00 0.00 0.00 0.00 0.00 0.00 0.00 0.00 0.00 0.00 0.00 0.00 0.00 0.00 0.00 0.00 0.00 0.00 0.00
0.00 0.00 0.00 0.00 0.00 0.00 0.00 0.00 0.00 0.00 0.00 0.00 0.00 0.00 0.00 0.00 0.00 0.00 0.00 0.00 0.00 0.00 0.00 0.00 0.00 0.00 0.00 0.00 0.00 0.00 0.00 0.00 0.00 0.00 0.00 0.00 0.00 0.00 0.00 0.00 0.00 0.00 0.00 0.00
0.00 0.00 0.00 0.00 0.00 0.00 0.00 0.00 0.00 0.00 0.00 0.00 0.00 0.00 0.00 0.00 0.00 0.00 0.00 0.00 0.00 0.00 0.00 0.00 0.00 0.00 0.00 0.00 0.00 0.00 0.00 0.00 0.00 0.00 0.00 0.00 0.00 0.00 0.00 0.00 0.00 0.00 0.00 0.00
0.00 0.01 0.02 0.01 0.00 0.00 0.00 0.00 0.00 0.00 0.00 0.00 0.00 0.00 0.00 0.00 0.00 0.00 0.00 0.00 0.00 0.00 0.00 0.00 0.00 0.00 0.00 0.00 0.00 0.00 0.00 0.00 0.00 0.00 0.00 0.00 0.00 0.00 0.00 0.00 0.00 0.00 0.00 0.00
0.00 0.02 0.02 0.01 0.00 0.00 0.00 0.00 0.00 0.00 0.00 0.00 0.00 0.00 0.00 0.00 0.00 0.00 0.00 0.00 0.00 0.00 0.00 0.00 0.00 0.00 0.00 0.00 0.00 0.00 0.00 0.00 0.00 0.00 0.00 0.00 0.00 0.00 0.00 0.00 0.00 0.00 0.00 0.00
0.02 0.03 0.01 0.00 0.00 0.00 0.00 0.00 0.00 0.00 0.00 0.00 0.00 0.00 0.00 0.00 0.00 0.00 0.00 0.00 0.00 0.00 0.00 0.00 0.00 0.00 0.00 0.00 0.00 0.00 0.00 0.00 0.00 0.00 0.00 0.00 0.00 0.00 0.00 0.00 0.00 0.00 0.00 0.00
0.03 0.04 0.02 0.01 0.00 0.00 0.01 0.00 0.00 0.00 0.00 0.00 0.00 0.00 0.00 0.00 0.00 0.00 0.00 0.00 0.00 0.00 0.00 0.00 0.00 0.00 0.00 0.00 0.00 0.00 0.00 0.00 0.00 0.00 0.00 0.00 0.00 0.00 0.00 0.00 0.00 0.00 0.00 0.00
0.14 0.15 0.11 0.07 0.02 0.03 0.08 0.03 0.00 0.00 0.00 0.00 0.00 0.00 0.00 0.00 0.00 0.00 0.00 0.00 0.00 0.00 0.00 0.00 0.00 0.00 0.00 0.00 0.00 0.00 0.00 0.00 0.00 0.00 0.00 0.00 0.00 0.00 0.00 0.00 0.00 0.00 0.00 0.00
0.19 0.24 0.27 0.27 0.18 0.19 0.09 0.01 0.00 0.00 0.00 0.00 0.00 0.00 0.00 0.00 0.00 0.00 0.00 0.00 0.00 0.00 0.00 0.00 0.00 0.00 0.00 0.00 0.00 0.00 0.00 0.00 0.00 0.00 0.00 0.00 0.00 0.00 0.00 0.00 0.00 0.00 0.00 0.00
0.14 0.20 0.42 0.52 0.42 0.22 0.03 0.00 0.00 0.00 0.00 0.00 0.00 0.00 0.00 0.00 0.00 0.00 0.00 0.00 0.00 0.00 0.00 0.00 0.00 0.00 0.00 0.00 0.00 0.00 0.00 0.00 0.00 0.00 0.00 0.00 0.00 0.00 0.00 0.00 0.00 0.00 0.00 0.00
0.13 0.20 0.42 0.63 0.54 0.26 0.03 0.00 0.00 0.00 0.00 0.00 0.00 0.00 0.00 0.00 0.00 0.00 0.00 0.00 0.00 0.00 0.00 0.00 0.00 0.00 0.00 0.00 0.00 0.00 0.00 0.00 0.00 0.00 0.00 0.00 0.00 0.00 0.00 0.00 0.00 0.00 0.00 0.00
0.06 0.18 0.37 0.47 0.40 0.16 0.01 0.00 0.00 0.00 0.00 0.00 0.00 0.00 0.00 0.00 0.00 0.00 0.00 0.00 0.00 0.00 0.00 0.00 0.00 0.00 0.00 0.00 0.00 0.00 0.00 0.00 0.00 0.00 0.00 0.00 0.00 0.00 0.00 0.00 0.00 0.00 0.00 0.00
0.02 0.08 0.19 0.24 0.30 0.19 0.02 0.00 0.00 0.00 0.00 0.00 0.00 0.00 0.00 0.00 0.00 0.00 0.00 0.00 0.00 0.00 0.00 0.00 0.00 0.00 0.00 0.00 0.00 0.00 0.00 0.00 0.00 0.00 0.00 0.00 0.00 0.00 0.00 0.00 0.00 0.00 0.00 0.00
0.03 0.05 0.07 0.10 0.15 0.07 0.01 0.01 0.02 0.01 0.00 0.00 0.00 0.00 0.00 0.00 0.00 0.00 0.00 0.00 0.00 0.00 0.00 0.00 0.00 0.00 0.00 0.00 0.00 0.00 0.00 0.00 0.00 0.00 0.00 0.00 0.00 0.00 0.00 0.00 0.00 0.00 0.00 0.00
0.06 0.08 0.11 0.16 0.17 0.11 0.07 0.06 0.05 0.02 0.01 0.00 0.00 0.00 0.00 0.00 0.00 0.00 0.00 0.00 0.00 0.00 0.00 0.00 0.00 0.00 0.00 0.00 0.00 0.00 0.00 0.00 0.00 0.00 0.00 0.00 0.00 0.00 0.00 0.00 0.00 0.00 0.00 0.00
0.05 0.07 0.11 0.16 0.15 0.15 0.14 0.10 0.06 0.03 0.01 0.00 0.00 0.00 0.00 0.00 0.00 0.00 0.00 0.00 0.00 0.00 0.00 0.00 0.00 0.00 0.00 0.00 0.00 0.00 0.00 0.00 0.00 0.00 0.00 0.00 0.00 0.00 0.00 0.00 0.00 0.00 0.00 0.00
0.02 0.03 0.06 0.10 0.10 0.10 0.08 0.04 0.02 0.01 0.00 0.00 0.00 0.00 0.00 0.00 0.00 0.00 0.00 0.00 0.00 0.00 0.00 0.00 0.00 0.00 0.00 0.00 0.00 0.00 0.00 0.00 0.00 0.00 0.00 0.00 0.00 0.00 0.00 0.00 0.00 0.00 0.00 0.00
MSLP
1017.15 1017.31 1017.45 1017.59 1017.76 1017.96 1018.18 1018.41 1018.61 1018.75 1018.79 1018.71 1018.51 1018.24 1017.94 1017.68 1017.54 1017.58 1017.85 1018.33 1019.01 1019.82 1020.69 1021.52 1022.24 1022.80 1023.17 1023.38 1023.48 1023.51 1023.58 1023.72 1023.99 1024.39 1024.89 1025.45 1026.01 1026.50 1026.87 1027.11 1027.23 1027.25 1027.23 1027.23
1017.26 1017.30 1017.35 1017.43 1017.59 1017.83 1018.13 1018.45 1018.74 1018.93 1018.97 1018.84 1018.54 1018.12 1017.65 1017.22 1016.93 1016.88 1017.10 1017.60 1018.35 1019.27 1020.26 1021.22 1022.05 1022.68 1023.11 1023.34 1023.45 1023.50 1023.60 1023.80 1024.14 1024.63 1025.23 1025.90 1026.55 1027.11 1027.53 1027.81 1027.93 1027.96 1027.94 1027.94
1017.34 1017.28 1017.26 1017.32 1017.49 1017.79 1018.17 1018.59 1018.95 1019.18 1019.21 1019.00 1018.58 1017.99 1017.33 1016.73 1016.31 1016.16 1016.34 1016.87 1017.69 1018.72 1019.84 1020.91 1021.84 1022.56 1023.03 1023.30 1023.42 1023.48 1023.59 1023.82 1024.21 1024.77 1025.45 1026.19 1026.92 1027.55 1028.04 1028.36 1028.53 1028.60 1028.61 1028.65
1017.31 1017.20 1017.14 1017.21 1017.43 1017.81 1018.29 1018.79 1019.22 1019.46 1019.46 1019.16 1018.60 1017.85 1017.01 1016.25 1015.69 1015.46 1015.61 1016.16 1017.06 1018.19 1019.42 1020.61 1021.65 1022.44 1022.97 1023.26 1023.40 1023.47 1023.59 1023.83 1024.24 1024.83 1025.55 1026.34 1027.13 1027.82 1028.37 1028.76 1029.00 1029.13 1029.21 1029.30
1017.11 1016.98 1016.94 1017.05 1017.36 1017.83 1018.41 1019.00 1019.47 1019.72 1019.67 1019.28 1018.59 1017.68 1016.68 1015.77 1015.10 1014.80 1014.93 1015.51 1016.47 1017.69 1019.03 1020.33 1021.45 1022.32 1022.91 1023.24 1023.39 1023.48 1023.59 1023.83 1024.24 1024.84 1025.57 1026.38 1027.20 1027.94 1028.55 1029.01 1029.33 1029.54 1029.70 1029.86
1016.67 1016.56 1016.58 1016.78 1017.19 1017.77 1018.45 1019.12 1019.63 1019.87 1019.77 1019.29 1018.48 1017.44 1016.32 1015.30 1014.55 1014.20 1014.33 1014.93 1015.95 1017.25 1018.67 1020.05 1021.26 1022.20 1022.84 1023.22 1023.40 1023.50 1023.61 1023.85 1024.24 1024.82 1025.54 1026.35 1027.17 1027.94 1028.59 1029.12 1029.52 1029.82 1030.07 1030.30
1015.98 1015.93 1016.05 1016.36 1016.89 1017.59 1018.36 1019.08 1019.62 1019.85 1019.70 1019.15 1018.25 1017.12 1015.92 1014.83 1014.04 1013.68 1013.81 1014.44 1015.49 1016.84 1018.33 1019.77 1021.04 1022.04 1022.74 1023.17 1023.39 1023.52 1023.65 1023.88 1024.26 1024.81 1025.50 1026.28 1027.09 1027.87 1028.56 1029.13 1029.61 1029.99 1030.32 1030.63
1015.09 1015.14 1015.37 1015.81 1016.46 1017.25 1018.10 1018.86 1019.40 1019.60 1019.41 1018.81 1017.86 1016.69 1015.47 1014.37 1013.59 1013.24 1013.39 1014.04 1015.11 1016.48 1017.99 1019.46 1020.77 1021.82 1022.57 1023.06 1023.35 1023.52 1023.69 1023.93 1024.31 1024.83 1025.49 1026.24 1027.02 1027.78 1028.48 1029.09 1029.62 1030.07 1030.47 1030.85
1014.10 1014.28 1014.63 1015.19 1015.94 1016.80 1017.68 1018.44 1018.95 1019.12 1018.89 1018.27 1017.32 1016.16 1014.97 1013.92 1013.18 1012.88 1013.06 1013.72 1014.79 1016.15 1017.64 1019.11 1020.42 1021.50 1022.31 1022.86 1023.22 1023.47 1023.69 1023.98 1024.37 1024.89 1025.52 1026.23 1026.98 1027.72 1028.41 1029.04 1029.59 1030.09 1030.55 1030.97
1013.16 1013.46 1013.93 1014.59 1015.39 1016.27 1017.13 1017.85 1018.30 1018.42 1018.15 1017.52 1016.60 1015.51 1014.40 1013.45 1012.80 1012.57 1012.79 1013.45 1014.50 1015.81 1017.25 1018.68 1019.97 1021.06 1021.91 1022.53 1022.98 1023.32 1023.64 1023.99 1024.43 1024.96 1025.58 1026.26 1026.98 1027.68 1028.36 1028.98 1029.55 1030.08 1030.56 1031.02
1012.36 1012.78 1013.34 1014.05 1014.86 1015.70 1016.48 1017.09 1017.45 1017.48 1017.18 1016.56 1015.69 1014.70 1013.73 1012.92 1012.39 1012.25 1012.52 1013.19 1014.19 1015.43 1016.79 1018.13 1019.38 1020.45 1021.33 1022.03 1022.58 1023.04 1023.47 1023.92 1024.42 1025.00 1025.63 1026.31 1027.00 1027.67 1028.31 1028.92 1029.49 1030.02 1030.52 1030.99
1011.75 1012.26 1012.88 1013.59 1014.34 1015.07 1015.71 1016.17 1016.38 1016.32 1015.96 1015.35 1014.57 1013.71 1012.89 1012.25 1011.88 1011.84 1012.17 1012.84 1013.79 1014.94 1016.19 1017.45 1018.63 1019.68 1020.58 1021.34 1022.00 1022.58 1023.14 1023.71 1024.32 1024.96 1025.62 1026.31 1026.98 1027.63 1028.25 1028.83 1029.38 1029.91 1030.41 1030.89
1011.26 1011.85 1012.48 1013.13 1013.77 1014.34 1014.79 1015.05 1015.09 1014.90 1014.49 1013.90 1013.20 1012.49 1011.85 1011.40 1011.19 1011.27 1011.66 1012.34 1013.24 1014.30 1015.45 1016.61 1017.71 1018.73 1019.65 1020.48 1021.24 1021.95 1022.65 1023.35 1024.06 1024.78 1025.50 1026.20 1026.88 1027.52 1028.12 1028.68 1029.21 1029.73 1030.22 1030.70
1010.81 1011.42 1012.02 1012.58 1013.05 1013.42 1013.64 1013.68 1013.54 1013.21 1012.75 1012.18 1011.58 1011.02 1010.57 1010.31 1010.28 1010.50 1010.96 1011.65 1012.51 1013.50 1014.56 1015.62 1016.66 1017.66 1018.59 1019.48 1020.34 1021.17 1022.00 1022.82 1023.64 1024.45 1025.22 1025.96 1026.65 1027.29 1027.88 1028.44 1028.96 1029.46 1029.95 1030.43
1010.26 1010.85 1011.37 1011.80 1012.09 1012.24 1012.23 1012.05 1011.73 1011.30 1010.79 1010.25 1009.76 1009.35 1009.10 1009.03 1009.17 1009.52 1010.07 1010.79 1011.64 1012.57 1013.56 1014.56 1015.55 1016.53 1017.48 1018.42 1019.36 1020.29 1021.23 1022.16 1023.08 1023.96 1024.79 1025.57 1026.29 1026.94 1027.53 1028.09 1028.61 1029.11 1029.61 1030.08
1009.50 1010.04 1010.45 1010.73 1010.84 1010.78 1010.57 1010.21 1009.76 1009.24 1008.71 1008.23 1007.85 1007.60 1007.52 1007.64 1007.95 1008.43 1009.07 1009.83 1010.69 1011.60 1012.55 1013.51 1014.47 1015.44 1016.41 1017.40 1018.40 1019.41 1020.42 1021.43 1022.41 1023.35 1024.24 1025.05 1025.79 1026.46 1027.08 1027.65 1028.19 1028.70 1029.20 1029.68
1008.50 1008.95 1009.25 1009.39 1009.34 1009.13 1008.77 1008.29 1007.76 1007.21 1006.71 1006.30 1006.04 1005.94 1006.03 1006.31 1006.77 1007.37 1008.09 1008.91 1009.78 1010.70 1011.63 1012.58 1013.54 1014.51 1015.50 1016.51 1017.55 1018.61 1019.66 1020.71 1021.73 1022.70 1023.61 1024.45 1025.22 1025.92 1026.56 1027.15 1027.71 1028.25 1028.77 1029.26
1007.32 1007.68 1007.87 1007.90 1007.75 1007.45 1007.01 1006.50 1005.96 1005.44 1005.01 1004.71 1004.57 1004.61 1004.84 1005.26 1005.82 1006.52 1007.31 1008.18 1009.08 1010.01 1010.95 1011.90 1012.86 1013.84 1014.84 1015.86 1016.91 1017.97 1019.03 1020.08 1021.10 1022.07 1022.98 1023.83 1024.61 1025.34 1026.01 1026.64 1027.24 1027.80 1028.34 1028.85
1006.09 1006.36 1006.49 1006.46 1006.28 1005.96 1005.54 1005.06 1004.59 1004.16 1003.84 1003.66 1003.64 1003.81 1004.14 1004.65 1005.29 1006.05 1006.88 1007.77 1008.69 1009.63 1010.57 1011.53 1012.50 1013.48 1014.48 1015.49 1016.52 1017.55 1018.57 1019.58 1020.56 1021.50 1022.40 1023.24 1024.04 1024.78 1025.48 1026.15 1026.78 1027.37 1027.93 1028.45
1004.98 1005.20 1005.30 1005.27 1005.12 1004.86 1004.53 1004.17 1003.82 1003.53 1003.34 1003.29 1003.38 1003.63 1004.04 1004.59 1005.26 1006.02 1006.85 1007.74 1008.65 1009.59 1010.54 1011.49 1012.45 1013.42 1014.40 1015.37 1016.35 1017.33 1018.29 1019.23 1020.14 1021.03 1021.89 1022.72 1023.51 1024.27 1025.00 1025.69 1026.34 1026.96 1027.53 1028.04
1004.14 1004.34 1004.45 1004.48 1004.41 1004.27 1004.09 1003.89 1003.70 1003.57 1003.53 1003.59 1003.77 1004.08 1004.51 1005.06 1005.71 1006.43 1007.23 1008.07 1008.95 1009.86 1010.78 1011.72 1012.66 1013.59 1014.53 1015.45 1016.36 1017.25 1018.12 1018.98 1019.82 1020.64 1021.45 1022.25 1023.03 1023.80 1024.54 1025.25 1025.92 1026.54 1027.11 1027.61
1003.64 1003.85 1004.02 1004.13 1004.19 1004.20 1004.19 1004.17 1004.16 1004.19 1004.28 1004.44 1004.68 1005.01 1005.42 1005.93 1006.51 1007.16 1007.88 1008.66 1009.48 1010.33 1011.21 1012.11 1013.00 1013.89 1014.77 1015.62 1016.44 1017.24 1018.02 1018.79 1019.54 1020.30 1021.06 1021.83 1022.60 1023.36 1024.11 1024.82 1025.49 1026.10 1026.65 1027.11
1003.47 1003.72 1003.95 1004.16 1004.35 1004.52 1004.67 1004.82 1004.98 1005.15 1005.34 1005.57 1005.85 1006.17 1006.54 1006.97 1007.47 1008.03 1008.66 1009.35 1010.09 1010.88 1011.70 1012.54 1013.38 1014.21 1015.01 1015.79 1016.53 1017.23 1017.92 1018.60 1019.28 1019.97 1020.69 1021.43 1022.18 1022.93 1023.68 1024.38 1025.04 1025.62 1026.13 1026.54
1003.57 1003.85 1004.15 1004.44 1004.74 1005.04 1005.33 1005.61 1005.89 1006.17 1006.44 1006.71 1006.99 1007.29 1007.61 1007.98 1008.39 1008.86 1009.40 1010.00 1010.66 1011.38 1012.14 1012.92 1013.70 1014.47 1015.20 1015.90 1016.56 1017.18 1017.79 1018.39 1019.01 1019.65 1020.33 1021.04 1021.78 1022.52 1023.25 1023.93 1024.56 1025.11 1025.56 1025.91
1003.84 1004.14 1004.46 1004.81 1005.18 1005.55 1005.93 1006.30 1006.66 1006.99 1007.31 1007.61 1007.89 1008.16 1008.45 1008.75 1009.10 1009.51 1009.98 1010.52 1011.13 1011.79 1012.50 1013.22 1013.95 1014.65 1015.32 1015.95 1016.54 1017.10 1017.64 1018.18 1018.75 1019.36 1020.01 1020.69 1021.41 1022.14 1022.85 1023.51 1024.10 1024.59 1024.99 1025.28
1004.20 1004.49 1004.81 1005.17 1005.54 1005.94 1006.34 1006.74 1007.13 1007.49 1007.83 1008.13 1008.42 1008.68 1008.95 1009.24 1009.56 1009.94 1010.39 1010.90 1011.48 1012.11 1012.79 1013.48 1014.16 1014.82 1015.44 1016.01 1016.54 1017.04 1017.53 1018.04 1018.57 1019.14 1019.77 1020.44 1021.14 1021.84 1022.53 1023.15 1023.70 1024.15 1024.49 1024.73
Thickness
5675 5668 5666 5674 5676 5678 5678 5672 5670 5681 5676 5675 5669 5673 5682 5678 5676 5677 5678 5674 5669 5665 5656 5650 5646 5643 5641 5639 5638 5637 5636 5634 5633 5631 5627 5622 5615 5611 5609 5607 5604 5602 5599 5596
5659 5659 5676 5683 5682 5676 5668 5661 5662 5670 5670 5665 5661 5667 5681 5681 5678 5680 5680 5676 5670 5660 5650 5645 5641 5637 5636 5633 5632 5630 5628 5627 5625 5623 5619 5613 5606 5600 5597 5594 5591 5588 5585 5581
5656 5667 5677 5672 5665 5660 5658 5653 5654 5655 5656 5651 5648 5653 5673 5685 5686 5684 5683 5679 5672 5661 5649 5640 5636 5632 5630 5627 5625 5624 5621 5619 5616 5612 5608 5602 5597 5590 5584 5580 5576 5572 5569 5566
5654 5666 5665 5661 5657 5653 5644 5657 5654 5650 5637 5635 5640 5631 5671 5685 5682 5681 5677 5671 5666 5658 5648 5637 5631 5627 5623 5620 5617 5615 5612 5609 5606 5602 5599 5595 5588 5580 5571 5566 5562 5557 5553 5549
5650 5656 5649 5646 5652 5650 5645 5645 5647 5642 5630 5620 5631 5624 5653 5677 5674 5677 5673 5665 5659 5652 5644 5634 5627 5621 5616 5612 5609 5606 5603 5600 5597 5594 5590 5584 5577 5569 5561 5554 5549 5543 5538 5533
5648 5649 5648 5648 5650 5649 5635 5632 5627 5623 5612 5597 5624 5621 5640 5668 5679 5682 5677 5664 5654 5645 5637 5627 5619 5612 5607 5603 5599 5597 5594 5591 5588 5584 5579 5573 5567 5559 5551 5543 5536 5529 5523 5517
5628 5630 5633 5636 5628 5632 5626 5615 5598 5592 5586 5597 5628 5626 5646 5674 5681 5683 5676 5662 5649 5638 5629 5619 5610 5604 5599 5594 5591 5587 5584 5581 5578 5573 5568 5562 5556 5549 5541 5533 5524 5516 5508 5501
5617 5622 5629 5627 5629 5617 5617 5615 5593 5586 5589 5603 5615 5616 5645 5650 5653 5659 5661 5652 5640 5629 5621 5612 5604 5599 5593 5588 5584 5580 5576 5572 5568 5563 5557 5551 5545 5538 5529 5521 5513 5504 5495 5487
5629 5629 5640 5633 5631 5622 5608 5608 5620 5602 5584 5578 5597 5621 5641 5631 5638 5640 5642 5636 5629 5622 5614 5606 5599 5593 5587 5581 5577 5573 5568 5563 5558 5553 5547 5540 5533 5525 5517 5508 5499 5490 5481 5472
5633 5623 5616 5614 5613 5612 5616 5612 5595 5588 5577 5575 5599 5616 5630 5630 5636 5631 5628 5626 5621 5614 5608 5601 5594 5587 5580 5574 5569 5564 5559 5554 5548 5541 5535 5527 5519 5511 5503 5494 5484 5474 5465 5456
5621 5610 5589 5591 5597 5604 5599 5597 5598 5592 5587 5579 5584 5616 5654 5650 5645 5634 5629 5625 5619 5612 5605 5597 5589 5581 5573 5566 5560 5555 5549 5543 5536 5529 5521 5513 5504 5496 5488 5478 5469 5459 5450 5440
5611 5603 5586 5586 5599 5606 5602 5600 5597 5584 5581 5590 5591 5615 5633 5641 5643 5636 5628 5621 5613 5605 5598 5590 5582 5573 5565 5558 5551 5545 5539 5531 5524 5515 5507 5498 5489 5481 5472 5463 5453 5444 5434 5424
5600 5584 5572 5572 5573 5578 5586 5596 5599 5596 5586 5584 5582 5604 5616 5620 5624 5625 5620 5613 5605 5596 5589 5582 5574 5566 5558 5550 5543 5535 5528 5519 5510 5502 5493 5483 5475 5466 5457 5448 5438 5428 5418 5407
5590 5578 5581 5588 5592 5584 5578 5584 5589 5582 5576 5583 5597 5608 5608 5607 5606 5608 5608 5603 5596 5589 5584 5577 5569 5560 5552 5543 5534 5525 5517 5508 5498 5489 5480 5471 5462 5453 5443 5433 5423 5412 5402 5391
5576 5565 5576 5592 5601 5591 5578 5578 5581 5582 5588 5584 5601 5604 5614 5606 5604 5604 5600 5593 5587 5580 5575 5570 5563 5555 5545 5535 5525 5516 5507 5497 5488 5477 5468 5459 5449 5439 5429 5418 5407 5396 5386 5375
5567 5560 5563 5569 5579 5577 5572 5578 5578 5577 5582 5588 5595 5608 5619 5615 5607 5601 5594 5588 5580 5574 5569 5564 5557 5548 5539 5530 5519 5508 5498 5488 5476 5466 5457 5447 5436 5425 5414 5403 5391 5380 5369 5358
5547 5543 5544 5561 5566 5551 5561 5592 5579 5577 5585 5584 5590 5614 5609 5602 5600 5599 5593 5584 5576 5571 5565 5557 5550 5542 5533 5524 5512 5500 5490 5477 5465 5454 5444 5433 5423 5411 5400 5388 5376 5365 5353 5342
5540 5531 5534 5546 5543 5551 5593 5606 5592 5585 5588 5590 5595 5603 5599 5599 5598 5595 5592 5582 5573 5565 5557 5548 5539 5531 5520 5510 5499 5487 5475 5464 5453 5442 5431 5420 5409 5397 5385 5373 5362 5350 5338 5327
5546 5536 5533 5537 5547 5556 5585 5589 5586 5578 5589 5603 5594 5595 5588 5585 5580 5579 5581 5577 5570 5559 5548 5538 5528 5519 5507 5496 5486 5473 5461 5450 5440 5430 5419 5407 5396 5384 5371 5359 5348 5336 5324 5314
5536 5538 5534 5537 5544 5552 5587 5582 5584 5574 5579 5602 5589 5588 5572 5563 5566 5573 5563 5555 5548 5539 5529 5520 5510 5501 5490 5480 5469 5457 5446 5436 5427 5418 5407 5395 5383 5371 5359 5348 5335 5323 5312 5302
5538 5533 5537 5541 5543 5548 5563 5554 5563 5553 5575 5571 5576 5574 5559 5562 5564 5553 5540 5530 5522 5514 5506 5499 5492 5483 5474 5463 5452 5440 5430 5422 5414 5403 5391 5380 5369 5357 5346 5334 5322 5310 5298 5287
5541 5539 5539 5537 5539 5547 5532 5533 5543 5544 5537 5539 5546 5544 5537 5527 5521 5518 5512 5503 5496 5488 5482 5477 5470 5461 5452 5443 5434 5424 5414 5407 5395 5385 5374 5364 5353 5342 5331 5319 5307 5296 5284 5273
5520 5527 5532 5530 5519 5503 5505 5510 5507 5511 5513 5516 5517 5516 5510 5502 5497 5491 5485 5479 5472 5467 5461 5455 5447 5438 5429 5422 5415 5407 5398 5387 5377 5366 5356 5346 5336 5326 5315 5304 5293 5280 5268 5259
5481 5480 5492 5485 5472 5471 5472 5478 5483 5486 5489 5490 5491 5491 5489 5483 5476 5470 5464 5457 5451 5445 5438 5432 5425 5417 5408 5401 5396 5390 5380 5370 5359 5349 5338 5327 5317 5307 5297 5288 5278 5266 5256 5246
5468 5463 5466 5457 5446 5447 5452 5458 5465 5468 5468 5467 5467 5468 5466 5462 5457 5451 5444 5438 5432 5427 5419 5412 5407 5401 5392 5383 5376 5368 5360 5350 5340 5330 5319 5309 5299 5290 5280 5271 5263 5254 5247 5236
5445 5449 5454 5453 5442 5443 5446 5449 5450 5450 5450 5448 5446 5444 5444 5443 5439 5433 5426 5420 5414 5408 5400 5394 5388 5381 5373 5365 5357 5348 5340 5331 5322 5311 5301 5292 5283 5273 5264 5254 5244 5239 5232 5224